Regional Weather Roundup
Issued by NWS

Home | Current Version | Previous Version | Graphics & Text | Print | Product List | Glossary On
Versions: 1 2 3 4 5 6 7 8 9 10 11 12 13 14 15 16 17 18 19 20 21 22 23 24 25 26 27 28 29 30 31 32 33 34 35 36 37 38 39 40 41 42 43 44 45 46 47 48 49 50
000
ASUS45 KCYS 180510
RWRWY

WYOMING REGIONAL WEATHER ROUNDUP
NATIONAL WEATHER SERVICE CHEYENNE WY
1000 PM MST WED DEC 17 2014

NOTE:  "FAIR" INDICATES FEW OR NO CLOUDS BELOW 12,000 FEET
WITH NO SIGNIFICANT WEATHER AND/OR OBSTRUCTIONS TO VISIBILITY.

WYZ001-180600-
YELLOWSTONE NATIONAL PARK

CITY           SKY/WX    TMP DP  RH WIND       PRES   REMARKS
LK YELLOWSTONE   N/A     17  14  88 CALM      30.00R
W YELLOWSTONE  NOT AVBL

$$
WYZ002>013-054>058-071-098>099-180600-
NORTHERN WYOMING

CITY           SKY/WX    TMP DP  RH WIND       PRES   REMARKS
JACKSON        CLOUDY    16  16 100 N7        30.01S WCI   6
CODY           FAIR      21  18  86 CALM      29.92S
GREYBULL       FAIR      13  10  88 NW5       29.99R WCI   5
WORLAND        FAIR       4   1  88 SW7       29.97R WCI  -8
SHERIDAN       FAIR      14  10  84 CALM      29.93S
BUFFALO        FAIR      26  18  71 SW8       29.93F WCI  18
GILLETTE       FAIR      24  19  81 SW5       29.94S WCI  18
HULETT           N/A    N/A N/A N/A MISG        N/A
NEWCASTLE      FOG       16  16 100 CALM      29.98S VSB 1/4

$$
WYZ014>020-022>026-101>103-180600-
CENTRAL WYOMING

CITY           SKY/WX    TMP DP  RH WIND       PRES   REMARKS
BIG PINEY      FAIR      12   7  80 CALM      30.02R
PINEDALE       CLOUDY    14  14 100 CALM      30.03R
DUBOIS         CLOUDY    27  14  59 NW14      29.95R WCI  15
LANDER         FOG        1  -2  87 CALM      29.96S VSB 1/4
RIVERTON       HAZE      15  10  80 SW5       29.98S VSB 1/4 WCI   8
CASPER         FAIR      18  13  80 W10       29.95S WCI   6
DOUGLAS        FAIR      14  10  84 CALM      29.97S

$$
WYZ021-027>030-104>119-180600-
SOUTHERN WYOMING

CITY           SKY/WX    TMP DP  RH WIND       PRES   REMARKS
EVANSTON       CLOUDY    26  20  77 SW7       30.02R WCI  18
KEMMERER       FAIR      21  18  86 NW7       30.02R WCI  13
FORT BRIDGER   CLOUDY    31  22  69 W8        30.04R WCI  23
ROCK SPRINGS   FAIR      16  12  84 N3        30.00R
DIXON          FOG      N/A N/A N/A CALM      30.07R VSB 1/4
RAWLINS        FAIR      15  10  80 CALM      29.98R
SARATOGA       FAIR      10   9  92 SE6       30.00R WCI   1
LARAMIE        FAIR      12   8  84 SE10      29.96R WCI  -1
CHEYENNE       FAIR      24  15  68 W6        29.96R WCI  17
TORRINGTON     FOG       14  13  95 CALM      30.00R VSB 1/4
PINE BLUFFS    CLOUDY    27  23  86 SW5       29.98R WCI  21

$$


USA.gov is the U.S. government's official web portal to all federal, state and local government web resources and services.